Tracking 22081 objects as of 4-Dec-2020
HD Live streaming from Space Station
objects crossing your sky now

SL-12 DEB

Track SL-12 DEB now!
10-day predictions


NORAD ID: 29449
Int'l Code: 1989-039CT
Perigee: 1,720.9 km
Apogee: 17,893.0 km
Inclination: 61.3 °
Period: 341.3 minutes
Semi major axis: 16177 km
RCS: 0.116 m2 (medium)
Launch date: May 31, 1989
Source: Commonwealth of Independent States (former USSR) (CIS)
Launch site: TYURATAM MISSILE AND SPACE COMPLEX (TTMTR)

Note: This is SATELLITE DEBRIS
aabbcc
Your satellite tracking list
Your tracking list is empty




NASA's NSSDC Master Catalog

Two Line Element Set (TLE):
1 29449U 89039CT  20334.89701571 -.00000006  00000-0  00000+0 0  9993
2 29449  61.3461  80.3876 4998185  92.3514   3.3553  4.21906634221550
Source of the keplerian elements: AFSPC